Tracking 18980 objects as of 23-Feb-2018
HD Live streaming from Space Station
objects crossing your sky now

COSMOS 2285

Track COSMOS 2285 now!
10-day predictions
COSMOS 2285 is classified as:


NORAD ID: 23189
Int'l Code: 1994-045A
Perigee: 980.3 km
Apogee: 1,016.8 km
Inclination: 74.0 °
Period: 104.9 minutes
Semi major axis: 7369 km
RCS: 1.9645 m2 (large)
Launch date: August 2, 1994
Source: Commonwealth of Independent States (former USSR) (CIS)
Launch site: PLESETSK MISSILE AND SPACE COMPLEX (PKMTR)
aabbcc
Your satellite tracking list
Your tracking list is empty




NASA's NSSDC Master Catalog

Two Line Element Set (TLE):
1 23189U 94045A   18053.56114031 -.00000013 +00000-0 +98010-5 0  9991
2 23189 074.0278 090.9677 0024759 026.5589 127.0700 13.72278512179814
Source of the keplerian elements: AFSPC